Simultaneous Nadir Overpasses (SNOs) Predictions

Prediction of SNOs between GOES-15 and METOP-A Satellite Orbit:

Table of predicted SNOs for the next 14.0 days since TLE Epoch: 4/27/2017
Index Date Time (GOES-15) GOES-15 Lat,Lon METOP-A Lat,Lon Distance(km) Time Diff (sec)
1 04/28/2017 18:17:46 -0.07,-135.47 -0.70,-132.60 327.06 80
2 04/30/2017 06:36:46 0.08,-135.43 -0.29,-137.20 200.65 80
3 05/01/2017 06:18:46 0.08,-135.42 0.78,-132.20 367.29 80
4 05/02/2017 18:37:38 -0.09,-135.42 0.19,-136.77 152.87 80
5 05/03/2017 18:14:18 -0.09,-135.41 -0.87,-131.76 414.57 80
6 05/05/2017 06:33:18 0.10,-135.37 -0.11,-136.37 113.93 80
7 05/06/2017 06:15:17 0.10,-135.35 0.96,-131.37 453.76 80
8 05/07/2017 18:34:10 -0.10,-135.35 0.01,-135.94 66.46 80
9 05/10/2017 06:29:49 0.10,-135.28 0.02,-135.53 28.93 80




NCC Satellite Simultaneous Nadir Overpasses (SNOs) Prediction Service
